Volver al catálogo

ONEWEB-0569

ActivoComunicacionesPO
NORAD 55148·PAYLOAD·🇬🇧 United Kingdom

Lanzado Jan 10, 2023 desde Cape Canaveral Space Force Station

Loading…

Próximos Pases (próximas 24 horas)

TLE

ActualizadoSource: CelesTrak SupGP

Época: Sep 14, 2026, 12:55 UTC

1 55148C 23004J   26257.53833750  .00003566  00000+0  97771-2 0  2577
2 55148  87.8918 302.4501 0001617  70.1804  31.7229 13.13463546    17

Sigue ONEWEB-0569 en tiempo real con AllMySat

Download on the App Store